Regional Weather Roundup
Issued by NWS

Home | Current Version | Previous Version | Graphics & Text | Print | Product List | Glossary On
Versions: 1 2 3 4 5 6 7 8 9 10 11 12 13 14 15 16 17 18 19 20 21 22 23 24 25 26 27 28 29 30 31 32 33 34 35 36 37 38 39 40 41 42 43 44 45 46 47 48 49 50
000
ASUS45 KSLC 310510
RWRUT

UTAH REGIONAL WEATHER ROUNDUP
NATIONAL WEATHER SERVICE SALT LAKE CITY UT
1100 PM MDT SUN AUG 30 2015

UTZ001>011-023>025-310600-

NORTHERN UTAH

CITY           SKY/WX    TMP DP  RH WIND       PRES   REMARKS
BRIGHAM CITY   CLEAR     73  33  23 SW3       29.98R
HILL AFB       CLEAR     71  45  39 NW8       29.99R
LOGAN          CLEAR     62  40  44 CALM      30.01R
OGDEN          CLEAR     69  45  41 NW9       29.97R
PROVO AIRPORT  PTCLDY    66  50  55 SE10      29.98R
SALT LAKE CITY PTCLDY    74  46  36 S8        29.95R
VERNAL         CLOUDY    70  50  49 E6        30.06S
WENDOVER       CLEAR     79  27  14 NW14G20   29.97R
HEBER CITY     MOCLDY    64  48  55 CALM      30.06R
WEST JORDAN    CLEAR     72  43  35 W3        29.98S

$$

UTZ012>022-026-027-310600-

SOUTHERN/CENTRAL UTAH

CITY           SKY/WX    TMP DP  RH WIND       PRES   REMARKS
BLANDING       CLOUDY    62  55  79 NW7       30.23S
BRYCE CANYON   PTCLDY    51  48  89 S5        30.29S
CEDAR CITY     PTCLDY    69  39  33 SE6       30.07S
DELTA          PTCLDY    74  36  24 S6        29.98R
HANKSVILLE     CLOUDY    79  48  34 SE8       30.03S
MILFORD        CLEAR     67  38  34 SW10      30.00R
MOAB/CYNLANDS  CLEAR     67  59  75 NE13      30.04R
PRICE          PTCLDY    63  50  62 N5        30.11S
ST GEORGE      MOCLDY    82  54  36 E22       29.90R
KANAB          PTCLDY    64  61  88 N13       30.16R

$$

REGIONAL REPORTS     COLORADO/ARIZONA

CITY           SKY/WX    TMP DP  RH WIND       PRES   REMARKS
CRAIG, CO      CLOUDY    62  50  64 S28G35    30.15F
GRAND JUNCTION LGT RAIN  61  61 100 NW7       30.16R
RIFLE          RAIN      61  57  87 CALM      30.25R FOG
MONTROSE       CLOUDY    63  58  83 SE7       30.20F
CORTEZ         CLEAR     64  53  67 W3        30.17F
PAGE, AZ       CLOUDY    68  64  87 SE16      30.07F
GRAND CANYON     N/A    N/A N/A N/A MISG      30.24R
KINGMAN        PTCLDY    79  43  27 S6        29.94R
FLAGSTAFF      CLOUDY    58  56  93 NE7       30.28S

$$

REGIONAL REPORTS    NEVADA/IDAHO/WYOMING

CITY           SKY/WX    TMP DP  RH WIND       PRES   REMARKS
LAS VEGAS, NV  PTCLDY    92  39  15 SW5       29.75S
ELY            PTCLDY    67  28  23 N8        30.10R
ELKO           CLEAR     65  21  18 E6        30.08R
POCATELLO, ID  CLEAR     60  31  33 S9        30.04R
BURLEY         CLEAR     53  42  66 S6        30.02R
EVANSTON, WY   MOCLDY    57  44  62 S6        30.16S
ROCK SPRINGS   LGT RAIN  56  50  80 W17       30.20R
KEMMERER       CLOUDY    59  43  55 S8        30.17S

$$



USA.gov is the U.S. government's official web portal to all federal, state and local government web resources and services.